星链-35194(STARLINK-35194)

导读

STARLINK-35194是美国太空探索技术公司(SpaceX)星链星座的一颗卫星,星链项目旨在构建覆盖全球的卫星互联网星座,为全球用户提供高速互联网服务。该卫星于2025年9月19日发射升空,加入已部署的数千颗星链卫星网络,持续推进星链星座的全球覆盖建设进程。

Basic Information
目录编号:
65671
目录名称:
STARLINK-35194
国际标识:
2025-211V
轨道中心:
EARTH
卫星名称:
星链-35194
卫星全名:
星链-35194(STARLINK-35194)
卫星状态:
在轨 (已飞行267 天)
发射日期:
2025-09-19 UTC
国别 :
美国 (US)
星等 :
--
Orbit Information
数据来源 国际轨道数据 AOE轨道数据
星历时间 2026-06-13T10:29:32+0800
13小时前
查看轨道信息
2026-06-13T06:00:00+0800
17小时前
查看轨道信息
半长轴 6927.623km 6927.644km
偏心率 0.0001696 0.0001721
轨道倾角 97.365° 97.371°
近地点辐角 131.782° 122.399°
升交点赤经 207.337° 207.161°
平近点角 228.355° 303.793°
近地点 548.311km 548.314km
远地点 550.661km 550.7km
周期 95.639分钟 95.640分钟
每日圈数 15.056585 15.056515
Detailed Information
固有亮度:
5
最大亮度:
2.5
卫星平台:
Starlink V1.0
覆盖范围:
全球
运营商:
太空探索技术公司
运营商所在国:
美国
制造商(研发单位):
太空探索技术公司
制造商所在国:
美国
使用方式:
暂无
Satellite Introduction
Starlink 计划是 SpaceX 推出的全球卫星互联网项目,通过发射低轨道卫星,为全球尤其是偏远地区提供高速、低延迟的互联网服务。自 2019 年起,Starlink 已部署数千颗卫星,旨在缩小全球数字鸿沟,推动互联网普及。该项目还为军事、航空等行业提供通信支持,带来广泛经济效益。
2D Orbit Map
3D Orbit Map
Orbit Altitude Analysis Chart
Orbit Inclination Analysis Chart
Orbit Comprehensive Analysis Chart
View Comprehensive Chart